Weather History for Montpelier, VT

Change the Weather History Date:

Wednesday, November 23, 2011

  Actual Average Record
Temperature  
Mean Temperature 30 °F 32 °F  
Max Temperature 33 °F 41 °F 62 °F (1953)
Min Temperature 27 °F 25 °F -1 °F (1972)
Degree Days  
Heating Degree Days 35 32  
Month to date heating degree days 552 650  
Since 1 July heating degree days 1238 1606  
Cooling Degree Days 0 0  
Month to date cooling degree days 0  
Year to date cooling degree days 264  
Moisture  
Dew Point 29 °F    
Average Humidity 93    
Maximum Humidity 100    
Minimum Humidity 85    
Precipitation  
Precipitation 1.08 in 0.10 in 1.08 in (2011)
Month to date precipitation 1.33 2.45  
Year to date precipitation 50.82 33.81  
Sea Level Pressure  
Sea Level Pressure 29.95 in    
Wind  
Wind Speed 4 mph (North)    
Max Wind Speed 10 mph    
Max Gust Speed 15 mph    
Visibility 3 miles    
Events Fog , Snow    
T = Trace of Precipitation, MM = Missing Value Source: NWS Daily Summary

Daily Weather History Graph

Daily Weather History Graph

Search for Another Location

Airport:

Trip Planner

Search our weather history database for the weather conditions in past years. The results will help you decide how hot, cold, wet, or windy it might be!

Date:

Astronomy

Nov. 23, 2011 Rise Set
Actual Time 6:55 AM EST 4:17 PM EST
Civil Twilight 6:23 AM EST 4:49 PM EST
Nautical Twilight 5:48 AM EST 5:24 PM EST
Astronomical Twilight 5:13 AM EST 5:59 PM EST
Moon 4:54 AM EST (11/23) 2:57 PM EST (11/23)
Length of Visible Light 10h 25m
Length of Day
9h 21m
Waning Crescent, 4% of the Moon is Illuminated
Nov 23
Waning Crescent
Nov 25
New
Dec 2
First Quarter
Dec 10
Full
Dec 17
Last Quarter

Hourly Weather History & Observations

Time (EST) Temp. Windchill Dew Point Humidity Pressure Visibility Wind Dir Wind Speed Gust Speed Precip Events Conditions
12:03 AM 28.4 °F - 26.6 °F 93% 30.20 in 1.2 mi Calm Calm - 0.00 in Snow Light Snow
12:11 AM 28.4 °F - 26.6 °F 93% 30.20 in 1.0 mi Calm Calm - 0.01 in Snow Light Snow
12:20 AM 28.4 °F - 26.6 °F 93% 30.19 in 0.8 mi Calm Calm - 0.02 in Snow Light Snow
12:32 AM 28.4 °F 24.6 °F 26.6 °F 93% 30.18 in 0.8 mi East 3.5 mph - 0.04 in Snow Light Snow
12:43 AM 28.4 °F - 26.6 °F 93% 30.17 in 1.0 mi Calm Calm - 0.05 in Snow Light Snow
12:51 AM 28.9 °F 22.8 °F 27.0 °F 92% 30.21 in 1.0 mi South 5.8 mph - 0.06 in Snow Light Snow
1:30 AM 28.4 °F - 26.6 °F 93% 30.15 in 0.8 mi Calm Calm - N/A Snow Light Snow
1:37 AM 28.4 °F 24.6 °F 26.6 °F 93% 30.14 in 1.0 mi ENE 3.5 mph - 0.04 in Snow Light Snow
1:51 AM 27.0 °F 23.0 °F 26.1 °F 96% 30.18 in 1.0 mi NE 3.5 mph - 0.06 in Snow Light Snow
1:56 AM 26.6 °F 22.6 °F 26.6 °F 100% 30.13 in 0.8 mi NE 3.5 mph - 0.00 in Snow Light Snow
2:51 AM 28.0 °F - 26.1 °F 92% 30.12 in 0.5 mi Calm Calm - 0.10 in Fog , Snow Snow
3:51 AM 28.0 °F - 26.1 °F 92% 30.04 in 0.5 mi Calm Calm - 0.13 in Fog , Snow Snow
4:51 AM 28.9 °F - 27.0 °F 92% 30.02 in 0.5 mi Calm Calm - 0.13 in Fog , Snow Snow
5:51 AM 28.9 °F - 28.0 °F 96% 29.99 in 0.5 mi Calm Calm - 0.13 in Fog , Snow Snow
6:51 AM 30.0 °F - 28.9 °F 96% 29.94 in 0.8 mi Calm Calm - 0.12 in Snow Light Snow
7:51 AM 30.0 °F - 28.9 °F 96% 29.92 in 0.5 mi Calm Calm - 0.09 in Fog , Snow Snow
8:37 AM 30.2 °F - 30.2 °F 100% 29.84 in 1.0 mi Calm Calm - 0.05 in Snow Light Snow
8:51 AM 30.9 °F - 30.0 °F 96% 29.89 in 1.0 mi Calm Calm - 0.06 in Snow Light Snow
9:03 AM 30.2 °F - 30.2 °F 100% 29.84 in 0.8 mi Calm Calm - 0.00 in Snow Light Snow
9:51 AM 30.9 °F - 30.0 °F 96% 29.88 in 0.5 mi Calm Calm - 0.05 in Fog , Snow Snow
10:48 AM 32.0 °F 28.7 °F 30.2 °F 93% 29.81 in 0.5 mi NNE 3.5 mph - 0.05 in Fog , Snow Snow
10:51 AM 32.0 °F 26.4 °F 30.9 °F 96% 29.86 in 0.5 mi NNE 5.8 mph - 0.06 in Fog , Snow Snow
11:16 AM 32.0 °F 27.5 °F 30.2 °F 93% 29.81 in 1.2 mi North 4.6 mph - 0.01 in Snow Light Snow
11:25 AM 32.0 °F 26.4 °F 30.2 °F 93% 29.81 in 2.0 mi North 5.8 mph - 0.01 in Snow Light Snow
11:41 AM 32.0 °F 27.5 °F 30.2 °F 93% 29.80 in 2.0 mi NNE 4.6 mph - 0.01 in Snow Light Snow
11:51 AM 33.1 °F 26.9 °F 30.9 °F 92% 29.84 in 2.0 mi North 6.9 mph - 0.02 in Snow Light Snow
12:25 PM 33.8 °F 28.6 °F 30.2 °F 87% 29.80 in 1.5 mi North 5.8 mph - 0.00 in Snow Light Snow
12:37 PM 33.8 °F 27.7 °F 30.2 °F 87% 29.80 in 1.2 mi North 6.9 mph - 0.00 in Snow Light Snow
12:51 PM 32.0 °F 26.4 °F 30.9 °F 96% 29.85 in 1.5 mi North 5.8 mph - 0.00 in Snow Light Snow
1:00 PM 32.0 °F 27.5 °F 30.2 °F 93% 29.81 in 1.5 mi NNW 4.6 mph - 0.00 in Snow Light Snow
1:22 PM 32.0 °F 25.6 °F 30.2 °F 93% 29.80 in 1.2 mi North 6.9 mph - N/A Snow Light Snow
1:30 PM 32.0 °F 25.6 °F 30.2 °F 93% 29.80 in 1.5 mi NNW 6.9 mph - 0.01 in Snow Light Snow
1:42 PM 32.0 °F 26.4 °F 30.2 °F 93% 29.81 in 2.5 mi North 5.8 mph - 0.01 in Snow Light Snow
1:51 PM 33.1 °F 26.9 °F 30.9 °F 92% 29.86 in 3.0 mi North 6.9 mph - 0.01 in Snow Light Snow
2:01 PM 33.8 °F 28.6 °F 30.2 °F 87% 29.81 in 2.0 mi North 5.8 mph - 0.00 in Snow Light Snow
2:04 PM 32.0 °F 26.4 °F 30.2 °F 93% 29.81 in 1.8 mi North 5.8 mph - 0.00 in Snow Light Snow
2:31 PM 32.0 °F 26.4 °F 30.2 °F 93% 29.82 in 1.2 mi NNW 5.8 mph - 0.01 in Snow Light Snow
2:40 PM 32.0 °F 26.4 °F 30.2 °F 93% 29.83 in 0.8 mi NNW 5.8 mph - 0.02 in Snow Light Snow
2:51 PM 32.0 °F 25.6 °F 30.2 °F 93% 29.83 in 0.8 mi NNW 6.9 mph - N/A Snow Light Snow
3:08 PM 32.0 °F 26.4 °F 30.2 °F 93% 29.85 in 1.2 mi NNW 5.8 mph - 0.01 in Snow Light Snow
3:16 PM 32.0 °F 24.8 °F 30.2 °F 93% 29.85 in 2.0 mi North 8.1 mph - N/A Snow Light Snow
3:48 PM 32.0 °F 24.8 °F 30.2 °F 93% 29.86 in 2.5 mi NNW 8.1 mph - 0.01 in Snow Light Snow
3:51 PM 32.0 °F 24.2 °F 30.0 °F 92% 29.91 in 2.5 mi NNW 9.2 mph - 0.01 in Snow Light Snow
4:05 PM 32.0 °F 24.2 °F 30.2 °F 93% 29.87 in 3.0 mi North 9.2 mph - N/A Snow Light Snow
4:51 PM 30.9 °F 25.2 °F 28.9 °F 92% 29.95 in 10.0 mi North 5.8 mph - 0.01 in   Overcast
5:40 PM 30.2 °F 26.7 °F 28.4 °F 93% 29.92 in 10.0 mi North 3.5 mph - N/A   Overcast
5:51 PM 30.9 °F - 28.9 °F 92% 29.97 in 10.0 mi Calm Calm - 0.01 in   Overcast
6:14 PM 30.2 °F - 28.4 °F 93% 29.93 in 8.0 mi Calm Calm - N/A   Overcast
6:43 PM 30.2 °F - 28.4 °F 93% 29.94 in 10.0 mi Calm Calm - N/A   Overcast
6:51 PM 30.0 °F - 28.9 °F 96% 30.00 in 10.0 mi Calm Calm - N/A   Overcast
7:08 PM 30.2 °F - 28.4 °F 93% 29.95 in 10.0 mi Calm Calm - N/A   Overcast
7:51 PM 30.0 °F 25.2 °F 27.0 °F 88% 30.02 in 10.0 mi NNW 4.6 mph - N/A   Overcast
8:01 PM 30.2 °F 26.7 °F 28.4 °F 93% 29.98 in 10.0 mi NNW 3.5 mph - N/A   Overcast
8:10 PM 30.2 °F 26.7 °F 28.4 °F 93% 29.98 in 10.0 mi North 3.5 mph - N/A   Overcast
8:34 PM 30.2 °F 25.4 °F 28.4 °F 93% 29.99 in 10.0 mi North 4.6 mph - N/A   Overcast
8:51 PM 30.0 °F 24.1 °F 28.0 °F 92% 30.04 in 10.0 mi North 5.8 mph - N/A   Overcast
9:51 PM 30.0 °F 24.1 °F 28.0 °F 92% 30.05 in 7.0 mi NNW 5.8 mph - N/A   Overcast
10:51 PM 28.9 °F 22.8 °F 27.0 °F 92% 30.07 in 7.0 mi NNW 5.8 mph - N/A   Overcast
11:48 PM 28.4 °F 20.4 °F 26.6 °F 93% 30.04 in 9.0 mi NW 8.1 mph - N/A   Overcast
11:51 PM 28.0 °F 20.0 °F 27.0 °F 96% 30.09 in 9.0 mi NW 8.1 mph - N/A   Overcast